Weather in Dubovka

Russia / Volgograd Oblast     49°03′19″N   44°49′37″E
temp.,
°C
wind,
m/s
gust,
m/s
humid.,
%
clouds,
%
prec.,
mm/h
press.,
hPa
HPBL,
m
3 august, tue
tue300:00+26s44398 0.0 101125
03:00+25wsw22383 0.0 101112
06:00+25se22385 0.0 101117
09:00+32s57255 0.0 1011374
12:00+36ssw78155 0.0 10112215
15:00+37ssw781499 0.0 10092451
18:00+35s710152 0.0 1008525
21:00+28wnw44280 0.0 100933
4 august, wed
wed400:00+24ne58515 0.0 1010115
03:00+23n4559100 0.0 100954
06:00+23n476014 0.0 1010141
09:00+25n6856100 0.6 1011330
12:00+29nne2341100 0.1 10111176
15:00+30nnw4439100 0.1 10111566
18:00+29nnw6744100 0.1 1011529
21:00+24n596210 0.1 1013192
5 august, thu
thu500:00+23n596672 0.0 1014186
03:00+21n487099 0.0 1015155
06:00+21nnw47711 0.0 1016163
09:00+25n6746100 0.0 1016863
12:00+27nne563786 0.0 10151266
15:00+28nne563327 0.0 10151441
18:00+27nne5634100 0.0 10151044
21:00+24nne4541100 0.0 101559
6 august, fri
fri600:00+22nne464921 0.0 101571
03:00+20nne47523 0.0 1015101
06:00+20ne47570 0.0 1016135
09:00+25e45440 0.0 1015513
12:00+28ene45340 0.0 10141247
15:00+30ene55290 0.0 10131401
18:00+29e56301 0.0 1012961
21:00+25ene56360 0.0 101270
7 august, sat
sat700:00+23ene510400 0.0 1012135
03:00+21ene49435 0.0 1013146
06:00+22ene41042100 0.0 1013191
09:00+27e6931100 0.0 1012517
12:00+30e6727100 0.0 10111176
15:00+31e6725100 0.0 10101179
18:00+31e61027100 0.0 1009321
21:00+27ene7133140 0.0 1009200